DELTA 1 DEB, 40758

Orbit data source: Space-Track

DELTA 1 DEB, 40758 is space debris in SSO originally from a launch on Thu, 29 Jul 1976 UTC launched from the Air Force Western Test Range (AFWTR). Debris objects in space refer to the collection of defunct objects orbiting the Earth. Examples of debris include non-operational satellites, rocket bodies, and fragments generated from explosions, collisions, or faulty payload assembly.

Loading next visibility...
Identifier
40758, 1976-077GB
Orbit
SSO
Country
Flag of USUS
Related business
Manufacturer
Unknown
Mission
Spacecraft
Bus & Motor
Unknown
Mass
Unknown
Launch date (UTC)
1976-07-29 (49 years ago)
Launch vehicle
Unknown
Launch site
Air Force Western Test Range (AFWTR)
Object type
Payload
Rocket body
Debris
Shape & HBR
Unknown shape, 0.1 m
Radar Cross Section
Small (<0.1 m²)

Expand to show TLE details & history
Last TLE update: 3 days ago

TLE from 3 days ago
0 DELTA 1 DEB
1 40758U 76077GB  25347.19048549  .00000046  00000-0  80784-3 0  9992
2 40758 102.5007 313.3271 0088741  73.0906 307.3760 12.25479901539322
Epoch: 2025-12-13T04:34Z
TLE epoch observation values (Epoch: 2025-12-13T04:34:17.946Z)
Latitude
19.17027°
Longitude
158.23202°
Altitude
1,528.405 km
Speed
7.122 km/s
True Right ascension
20h 35m 42s
True Declination
19° 04' 27"
Sunlit
Object was in daylight at epoch
Visualization orbit readout
Latitude
Unknown
Longitude
Unknown
Altitude
Unknown
Speed
Unknown
Apparent Right ascension
Unknown
Apparent Declination
Unknown
Sunlit
N/A
Visualization observer readout
Local Sidereal Time
12:07:55
Azimuth
Unknown
Elevation
Unknown
Doppler factor
Unknown
Orbital elements
Apogee altitude
1,636.886 km
Perigee altitude
1,495.885 km
Semi-major axis
7,944.523 km
Eccentricity
0.00887
Inclination
102.5007°
RAAN
313.3271°
Arg. of periapsis
73.0906°
True anomaly
306.56245°
Mean anomaly
307.376°
Eccentric anomaly
306.96977°
Mean motion
3.06508 °/min
Orbital period
117.45 mins
BSTAR
0.00080784
Loading maneuver chart data...
Computing Atmospheric mass density...
Loading historical data...
Loading historical data...
Loading historical data...
Loading historical data...
Loading historical data...
Loading historical data...
Loading historical data...

Documentation

Showing up to 5 results
|